Flag for Syria Weather past 2 weeks in Damascus, Syria

Now
68 °F

Clear.


Feels Like: 68 °F
Forecast: 58 / 86 °F
Wind: 12 mph from Southwest

Location: Damascus Int. Airport

Current Time: Sep 20, 2014 at 12:57:17 AM

Latest Report: Sep 20, 2014 at 12:00 AM


Visibility: 10 mi

Pressure: 29.98 "Hg

Humidity: 56%

Dew point: 52 °F

Location of DamascusLocation

Historic Weather in Damascus — Graph

°F

Damascus temperature yesterday

Maximum temperature yesterday: 90 °F (at 4:00 PM)
Minimum temperature yesterday: 57 °F (at 7:00 AM)
Average temperature yesterday: 73 °F

Past Weeks' High & Low Weather Summary

 TemperatureHumidityPressure
High95 °F (Sep 5, 2:00 PM)88% (Sep 5, 7:00 AM)30.07 "Hg (Sep 5, 7:00 AM)
Low55 °F (Sep 10, 6:00 AM)13% (Sep 12, 4:00 PM)29.71 "Hg (Sep 19, 5:00 AM)
Average75 °F52%29.91 "Hg
* Reported Sep 5 4:00 AM — Sep 19 11:00 PM, Damascus, Weather by CustomWeather, © 2014

Note: Actual official high and low records may vary slightly from our data, if they occured in-between our weather recording intervals... More about our weather records

Advertising

Damascus weather history for previous 24 hours

 ConditionsComfort  
Time TempWeatherWind HumidityBarometerVisibility
11:00 PM
Sep 19
72 °FClear.16 mph53%29.98 "Hg10 mi
10:00 PM72 °FClear.16 mph57%29.98 "Hg10 mi
9:00 PM73 °FClear.21 mph61%29.98 "Hg10 mi
8:00 PM77 °FClear.25 mph51%29.95 "Hg10 mi
7:00 PM81 °FSunny.25 mph48%29.95 "Hg10 mi
6:00 PM86 °FSunny.23 mph35%29.95 "Hg10 mi
5:00 PM90 °FSunny.21 mph29%29.95 "Hg10 mi
4:00 PM90 °FSunny.14 mph29%29.95 "Hg10 mi
3:00 PM88 °FSunny.9 mph33%29.98 "Hg10 mi
2:00 PM84 °FSunny.12 mph37%30.01 "Hg10 mi
1:00 PM82 °FSunny.12 mph37%30.01 "Hg10 mi
12:00 PM79 °FSunny.9 mph48%30.04 "Hg10 mi
11:00 AM75 °FSunny.5 mph61%30.04 "Hg10 mi
10:00 AM72 °FSunny.No wind69%30.07 "Hg10 mi
9:00 AM68 °FSunny.No wind78%30.04 "Hg10 mi
8:00 AM61 °FSunny.No wind83%30.04 "Hg10 mi
7:00 AM57 °FClear.2 mph82%30.04 "Hg10 mi
6:00 AM61 °FClear.2 mph88%30.01 "Hg10 mi
5:00 AM59 °FClear.5 mph82%29.71 "Hg10 mi
4:00 AM61 °FClear.2 mph83%30.01 "Hg10 mi
3:00 AM63 °FClear.5 mph77%30.01 "Hg10 mi
2:00 AM64 °FClear.7 mph73%30.01 "Hg10 mi
1:00 AM66 °FClear.5 mph73%30.01 "Hg10 mi
12:00 AM66 °FClear.7 mph64%30.01 "Hg10 mi
Weather by CustomWeather, © 2014

See weather overviewHow to use our weather pages